Location: Unspecified
(0.0000°N, 0.0000°E)
Time: 11:21:49
(UTC+00:00)

Tiros 1 despin weight - Pass Details

Date: 23 November 2019
Orbit: 594 x 642 km, 48.2° (Epoch: 07 December)

Event Time Altitude Azimuth Distance (km) Brightness Sun altitude
Rises 08:24:30 0° 219° (SW) 2,874 ? 36.7°
Reaches altitude 10° 08:26:49 10° 218° (SW) 1,959 ? 37.2°
Maximum altitude 08:31:19 88° 134° (SE) 606 ? 38.2°
Drops below altitude 10° 08:35:44 10° 39° (NE) 1,925 ? 39.2°
Sets 08:38:00 0° 39° (NE) 2,820 ? 39.7°
